Location: Praha
(50.0830°N, 14.4670°E)
Time: 05:29:28
(UTC+02:00)

ISS - Pass Details

Date: 02 August 2019
Orbit: 410 x 421 km, 51.6° (Epoch: 18 August)

Event Time Altitude Azimuth Distance (km) Brightness Sun altitude
Rises 21:50:54 0° 286° (WNW) 2,373 1.3 -9.5°
Reaches altitude 10° 21:53:13 10° 273° (W) 1,504 -0.2 -9.8°
Maximum altitude 21:56:04 25° 215° (SW) 877 -2.2 -10.1°
Enters shadow 21:58:24 13° 163° (SSE) 1,326 -1.8 -10.4°
